Location: Maccacari
(45.1333°N, 11.1333°E)
Time: 18:28:22
(UTC+00:00)

USA 234 - Pass Details

Date: 22 January 2021
Orbit: 1100 x 1107 km, 123.0° (Epoch: 01 March)

Event Time Altitude Azimuth Distance (km) Brightness Sun altitude
Exits shadow 20:45:55 20° 303° (WNW) 2,304 5.3 -48.0°
Drops below altitude 10° 20:47:42 10° 306° (NW) 2,965 6.0 -48.3°
Sets 20:50:12 0° 309° (NW) 3,926 6.8 -48.7°
